GW6716 Weather Reports


time (UTC)temp
C
wind
direction
speed
KPH
gust
KPH
rain 1hr
cm
rain 24hr
cm
rain mn
cm
humidity
%
barometer
mb
20260505092739 15 173 1.6 1.6 0.00 0.00 0.00 71 1012.1
20260505092238 15 192 1.6 1.6 0.00 0.00 0.00 70 1012.1
20260505091734 15 170 3.2 3.2 0.00 0.00 0.00 71 1011.8
20260505091233 15 179 0.0 1.6 0.00 0.00 0.00 72 1011.7
20260505090730 15 178 1.6 3.2 0.00 0.00 0.00 73 1011.9
20260505090228 15 148 1.6 1.6 0.00 0.00 0.00 72 1011.9
20260505085725 15 157 1.6 1.6 0.00 0.00 0.00 73 1011.9
20260505085224 15 143 1.6 1.6 0.00 0.00 0.00 73 1011.9
20260505084720 15 165 1.6 3.2 0.00 0.00 0.00 72 1011.8
20260505084220 15 150 1.6 1.6 0.00 0.00 0.00 71 1011.9
20260505083716 16 173 1.6 1.6 0.00 0.00 0.00 71 1011.9
20260505083213 16 178 3.2 3.2 0.00 0.00 0.00 71 1011.9
20260505082708 15 142 1.6 1.6 0.00 0.00 0.00 72 1012.1
20260505082206 16 146 0.0 0.0 0.00 0.00 0.00 71 1011.9
20260505081701 16 170 0.0 0.0 0.00 0.00 0.00 71 1012.0
20260505081159 16 179 1.6 1.6 0.00 0.00 0.00 71 1011.9
20260505080656 16 155 1.6 3.2 0.00 0.00 0.00 70 1012.0
20260505080152 16 161 1.6 1.6 0.00 0.00 0.00 71 1012.0
20260505075648 16 172 3.2 3.2 0.00 0.00 0.00 70 1011.9
20260505075145 16 192 1.6 3.2 0.00 0.00 0.00 69 1011.8
20260505074642 16 159 0.0 0.0 0.00 0.00 0.00 70 1011.8
20260505074139 16 151 0.0 0.0 0.00 0.00 0.00 70 1011.8
20260505073637 16 146 0.0 0.0 0.00 0.00 0.00 69 1011.8
20260505073135 16 172 1.6 1.6 0.00 0.00 0.00 69 1012.2
20260505072630 16 143 0.0 0.0 0.00 0.00 0.00 70 1012.0
20260505072127 16 156 0.0 1.6 0.00 0.00 0.00 69 1011.8
20260505071622 16 155 0.0 0.0 0.00 0.00 0.00 70 1011.8
20260505071121 16 162 0.0 0.0 0.00 0.00 0.00 70 1011.8
20260505070618 16 187 0.0 0.0 0.00 0.00 0.00 70 1011.8
20260505070114 16 160 0.0 1.6 0.00 0.00 0.00 69 1011.9
20260505065610 16 146 0.0 0.0 0.00 0.00 0.00 70 1011.7
20260505065106 16 155 0.0 0.0 0.00 0.00 0.00 70 1011.8
20260505064603 16 162 0.0 0.0 0.00 0.00 0.00 70 1011.7
20260505064102 16 179 1.6 1.6 0.00 0.00 0.00 70 1011.7
20260505063559 16 191 1.6 1.6 0.00 0.00 0.00 70 1011.5
20260505063054 16 173 1.6 1.6 0.00 0.00 0.00 70 1011.8
20260505062551 16 180 1.6 1.6 0.00 0.00 0.00 70 1011.4
20260505062049 16 145 1.6 1.6 0.00 0.00 0.00 70 1011.7
20260505061546 16 182 1.6 3.2 0.00 0.00 0.00 70 1011.7
20260505061044 16 148 0.0 1.6 0.00 0.00 0.00 70 1011.8
20260505060541 16 159 1.6 1.6 0.00 0.00 0.00 69 1011.8
20260505060038 16 161 1.6 1.6 0.00 0.00 0.00 69 1011.7
20260505055533 16 142 0.0 0.0 0.00 0.00 0.00 70 1011.6
20260505055030 16 149 0.0 1.6 0.00 0.00 0.00 69 1011.7
20260505054527 16 143 1.6 1.6 0.00 0.00 0.00 69 1011.7
20260505054025 16 158 1.6 1.6 0.00 0.00 0.00 69 1011.8
20260505053522 16 174 1.6 1.6 0.00 0.00 0.00 68 1012.1
20260505053019 16 124 0.0 0.0 0.00 0.00 0.00 69 1012.1
20260505052516 16 141 1.6 1.6 0.00 0.00 0.00 69 1011.9
20260505052013 16 146 1.6 1.6 0.00 0.00 0.00 68 1011.8
20260505051510 16 141 0.0 0.0 0.00 0.00 0.00 68 1011.9
20260505051008 16 163 3.2 3.2 0.00 0.00 0.00 68 1011.8
20260505050506 15 134 0.0 1.6 0.00 0.00 0.00 68 1011.9
20260505041433 16 153 0.0 1.6 0.00 0.00 0.00 65 1011.8
20260505040931 15 128 1.6 3.2 0.00 0.00 0.00 65 1011.7
20260505040428 16 112 1.6 3.2 0.00 0.00 0.00 65 1011.7
20260505035925 16 127 1.6 1.6 0.00 0.00 0.00 64 1011.6
20260505035421 16 130 1.6 1.6 0.00 0.00 0.00 63 1011.7
20260505034918 16 137 0.0 0.0 0.00 0.00 0.00 62 1011.7
20260505034414 16 138 0.0 0.0 0.00 0.00 0.00 62 1011.8
20260505033912 16 162 0.0 0.0 0.00 0.00 0.00 61 1011.6
20260505033408 16 143 1.6 1.6 0.00 0.00 0.00 60 1011.6
20260505032907 16 158 1.6 1.6 0.00 0.00 0.00 60 1011.7
20260505032403 16 135 0.0 0.0 0.00 0.00 0.00 59 1011.7
20260505031900 16 142 1.6 3.2 0.00 0.00 0.00 59 1011.6
20260505031357 16 131 0.0 1.6 0.00 0.00 0.00 58 1011.5
20260505030854 16 134 0.0 1.6 0.00 0.00 0.00 58 1011.6
20260505030349 16 128 0.0 0.0 0.00 0.00 0.00 57 1011.6
20260505025845 17 105 0.0 1.6 0.00 0.00 0.00 56 1011.7
20260505025343 16 147 4.8 4.8 0.00 0.00 0.00 55 1011.9
20260505024842 17 138 0.0 0.0 0.00 0.00 0.00 55 1011.7
20260505024339 17 121 0.0 0.0 0.00 0.00 0.00 55 1011.5
20260505023836 17 125 0.0 0.0 0.00 0.00 0.00 54 1011.7
20260505023332 17 126 0.0 0.0 0.00 0.00 0.00 54 1011.8
20260505022830 17 115 0.0 0.0 0.00 0.00 0.00 53 1011.8
20260505022327 17 131 3.2 4.8 0.00 0.00 0.00 53 1012.0
20260505021824 17 116 0.0 0.0 0.00 0.00 0.00 52 1012.0
20260505021321 17 126 0.0 1.6 0.00 0.00 0.00 52 1011.8
20260505020816 17 138 0.0 0.0 0.00 0.00 0.00 52 1011.8
20260505020312 17 146 0.0 1.6 0.00 0.00 0.00 51 1011.8
20260505015809 17 138 3.2 4.8 0.00 0.00 0.00 51 1011.8
20260505015306 17 125 0.0 0.0 0.00 0.00 0.00 51 1011.7
20260505014804 17 145 0.0 0.0 0.00 0.00 0.00 50 1011.6
20260505014301 17 123 0.0 0.0 0.00 0.00 0.00 49 1011.7
20260505013757 18 155 1.6 3.2 0.00 0.00 0.00 49 1011.7
20260505013254 18 157 3.2 4.8 0.00 0.00 0.00 48 1011.6
20260505012753 18 127 0.0 0.0 0.00 0.00 0.00 48 1011.5
20260505012250 18 126 0.0 0.0 0.00 0.00 0.00 47 1011.4
20260505011745 18 150 3.2 4.8 0.00 0.00 0.00 46 1011.5
20260505011242 18 110 0.0 0.0 0.00 0.00 0.00 46 1011.3
20260505010738 18 143 0.0 0.0 0.00 0.00 0.00 46 1011.4
20260505010234 18 136 0.0 0.0 0.00 0.00 0.00 46 1011.3
20260505005731 18 142 3.2 3.2 0.00 0.00 0.00 45 1011.3
20260505005228 18 133 0.0 1.6 0.00 0.00 0.00 45 1011.1
20260505004725 19 130 0.0 0.0 0.00 0.00 0.00 45 1011.0
20260505004222 19 155 0.0 3.2 0.00 0.00 0.00 45 1010.9
20260505003719 19 102 0.0 1.6 0.00 0.00 0.00 45 1011.1
20260505003217 19 130 0.0 0.0 0.00 0.00 0.00 46 1010.9
20260505002712 19 125 1.6 3.2 0.00 0.00 0.00 45 1011.0
20260505002210 20 155 1.6 4.8 0.00 0.00 0.00 45 1011.1
20260505001708 20 122 1.6 1.6 0.00 0.00 0.00 44 1011.0
20260505001205 20 103 0.0 1.6 0.00 0.00 0.00 44 1011.0
20260505000702 20 131 0.0 1.6 0.00 0.00 0.00 44 1011.1
20260505000200 20 104 0.0 1.6 0.00 0.00 0.00 43 1011.0
20260504235656 20 105 0.0 0.0 0.00 0.00 0.00 43 1010.9
20260504235152 20 114 0.0 1.6 0.00 0.00 0.00 42 1010.9
20260504234650 20 140 0.0 0.0 0.00 0.00 0.00 42 1010.9
20260504234147 20 138 1.6 3.2 0.00 0.00 0.00 41 1010.9
20260504233642 20 137 0.0 0.0 0.00 0.00 0.00 41 1010.9
20260504233139 21 139 3.2 3.2 0.00 0.00 0.00 41 1010.9
20260504232637 21 160 1.6 1.6 0.00 0.00 0.00 41 1011.0
20260504232133 21 178 3.2 3.2 0.00 0.00 0.00 41 1010.7
20260504231630 21 136 3.2 4.8 0.00 0.00 0.00 41 1010.7
20260504231126 21 145 1.6 1.6 0.00 0.00 0.00 40 1010.9
20260504230622 21 120 0.0 1.6 0.00 0.00 0.00 40 1011.0
20260504230121 21 136 0.0 0.0 0.00 0.00 0.00 40 1010.9
20260504225619 21 124 0.0 1.6 0.00 0.00 0.00 39 1010.9
20260504225115 21 129 1.6 4.8 0.00 0.00 0.00 39 1011.0
20260504224612 21 154 3.2 4.8 0.00 0.00 0.00 39 1010.9
20260504224109 22 146 1.6 4.8 0.00 0.00 0.00 39 1011.0
20260504223606 22 218 1.6 1.6 0.00 0.00 0.00 39 1010.7
20260504223101 22 175 1.6 1.6 0.00 0.00 0.00 38 1010.9
20260504222559 22 158 0.0 0.0 0.00 0.00 0.00 39 1010.7
20260504222056 22 217 3.2 3.2 0.00 0.00 0.00 37 1011.0
20260504221553 22 126 1.6 1.6 0.00 0.00 0.00 37 1011.0
20260504221050 22 197 3.2 3.2 0.00 0.00 0.00 37 1011.0
20260504220546 23 168 1.6 3.2 0.00 0.00 0.00 36 1011.1
20260504220043 23 204 3.2 4.8 0.00 0.00 0.00 37 1010.7
20260504215539 23 121 1.6 1.6 0.00 0.00 0.00 38 1011.1
20260504215037 22 141 0.0 0.0 0.00 0.00 0.00 37 1011.2
20260504214533 23 158 3.2 3.2 0.00 0.00 0.00 37 1011.1
20260504214030 23 176 1.6 3.2 0.00 0.00 0.00 36 1011.0
20260504213526 23 99 1.6 1.6 0.00 0.00 0.00 37 1011.3
20260504213024 23 180 6.4 6.4 0.00 0.00 0.00 36 1011.3
20260504212519 23 78 0.0 0.0 0.00 0.00 0.00 36 1011.0
20260504212017 23 130 1.6 1.6 0.00 0.00 0.00 37 1011.2
20260504211514 23 149 0.0 1.6 0.00 0.00 0.00 36 1011.2
20260504211011 23 186 3.2 3.2 0.00 0.00 0.00 35 1011.3
20260504210508 23 116 1.6 3.2 0.00 0.00 0.00 36 1011.6
20260504210004 23 202 6.4 6.4 0.00 0.00 0.00 36 1011.4
20260504205502 22 192 1.6 3.2 0.00 0.00 0.00 36 1011.4
20260504205000 23 147 0.0 1.6 0.00 0.00 0.00 35 1011.4
20260504204458 23 172 4.8 4.8 0.00 0.00 0.00 35 1011.4
20260504203957 23 144 3.2 4.8 0.00 0.00 0.00 36 1011.5
20260504203454 23 198 3.2 3.2 0.00 0.00 0.00 36 1011.4
20260504202950 23 246 3.2 3.2 0.00 0.00 0.00 37 1011.4
20260504202447 22 151 0.0 1.6 0.00 0.00 0.00 37 1011.6
20260504201943 22 278 4.8 4.8 0.00 0.00 0.00 37 1011.7
20260504201441 22 227 4.8 4.8 0.00 0.00 0.00 36 1011.8
20260504200938 22 168 3.2 3.2 0.00 0.00 0.00 37 1011.8
20260504200435 23 200 1.6 3.2 0.00 0.00 0.00 36 1011.7
20260504195931 22 202 1.6 1.6 0.00 0.00 0.00 36 1012.0
20260504195427 22 118 3.2 4.8 0.00 0.00 0.00 36 1012.1
20260504194924 22 198 3.2 3.2 0.00 0.00 0.00 36 1012.1
20260504194420 22 159 1.6 1.6 0.00 0.00 0.00 36 1012.3
20260504193916 22 116 0.0 1.6 0.00 0.00 0.00 35 1012.4
20260504193414 21 170 3.2 3.2 0.00 0.00 0.00 36 1012.3
20260504192912 22 128 3.2 4.8 0.00 0.00 0.00 35 1012.5
20260504192409 21 106 3.2 4.8 0.00 0.00 0.00 36 1012.6
20260504191908 21 157 1.6 1.6 0.00 0.00 0.00 36 1012.7
20260504191406 22 141 3.2 4.8 0.00 0.00 0.00 35 1012.7
20260504190900 21 212 6.4 9.7 0.00 0.00 0.00 35 1012.8
20260504190357 22 193 3.2 4.8 0.00 0.00 0.00 35 1012.9
20260504185853 21 160 0.0 1.6 0.00 0.00 0.00 38 1012.9
20260504185351 21 121 0.0 0.0 0.00 0.00 0.00 37 1012.8
20260504184846 21 132 3.2 3.2 0.00 0.00 0.00 35 1012.9
20260504184342 21 168 3.2 3.2 0.00 0.00 0.00 38 1013.0
20260504183839 22 135 1.6 1.6 0.00 0.00 0.00 35 1013.0
20260504183336 21 156 3.2 4.8 0.00 0.00 0.00 36 1013.1
20260504182834 20 221 3.2 4.8 0.00 0.00 0.00 36 1013.2
20260504182331 21 186 3.2 4.8 0.00 0.00 0.00 37 1013.4
20260504181828 22 234 4.8 6.4 0.00 0.00 0.00 35 1013.5
20260504181325 21 94 4.8 9.7 0.00 0.00 0.00 35 1013.5
20260504180824 21 219 1.6 1.6 0.00 0.00 0.00 35 1013.3
20260504180322 21 245 4.8 4.8 0.00 0.00 0.00 35 1013.4
20260504175820 21 236 4.8 6.4 0.00 0.00 0.00 35 1013.5
20260504175316 21 153 1.6 3.2 0.00 0.00 0.00 35 1013.5
20260504174815 21 84 0.0 1.6 0.00 0.00 0.00 35 1013.5
20260504174312 21 154 3.2 6.4 0.00 0.00 0.00 36 1013.7
20260504173808 21 191 6.4 6.4 0.00 0.00 0.00 34 1013.9
20260504173305 20 194 4.8 6.4 0.00 0.00 0.00 36 1013.8
20260504172802 20 106 6.4 6.4 0.00 0.00 0.00 36 1014.0
20260504172259 20 122 4.8 4.8 0.00 0.00 0.00 35 1014.1
20260504171754 21 200 3.2 3.2 0.00 0.00 0.00 34 1014.3
20260504171252 20 109 0.0 0.0 0.00 0.00 0.00 37 1014.3
20260504170749 21 248 0.0 1.6 0.00 0.00 0.00 35 1014.2
20260504170246 21 88 1.6 4.8 0.00 0.00 0.00 33 1014.3
20260504160204 20 100 1.6 1.6 0.00 0.00 0.00 41 1015.2
20260504151132 20 134 1.6 1.6 0.00 0.00 0.00 45 1015.6
20260504150630 20 131 3.2 3.2 0.00 0.00 0.00 41 1015.5
20260504150126 18 168 3.2 3.2 0.00 0.00 0.00 42 1015.5
20260504141055 16 219 1.6 3.2 0.00 0.00 0.00 51 1015.6
20260504140552 17 133 0.0 0.0 0.00 0.00 0.00 49 1015.8
20260504130516 15 237 3.2 6.4 0.00 0.00 0.00 61 1016.0
20260504110403 9 210 1.6 3.2 0.00 0.00 0.00 84 1016.4
20260504100320 7 170 0.0 1.6 0.00 0.00 0.00 84 1016.6